Location: Arcusa
(42.3167°N, 0.0833°W)
Time: 06:23:28
(UTC+00:00)

Cosmos 1340 Rocket - Pass Details

Date: 25 January 2020
Orbit: 530 x 558 km, 81.2° (Epoch: 24 February)

Event Time Altitude Azimuth Distance (km) Brightness Sun altitude
Rises 06:05:59 0° 173° (S) 2,662 6.6 -13.9°
Reaches altitude 10° 06:08:11 10° 167° (SSE) 1,775 5.8 -13.5°
Maximum altitude 06:11:53 43° 95° (E) 754 4.1 -12.8°
Drops below altitude 10° 06:15:37 10° 23° (NNE) 1,786 5.5 -12.2°
Sets 06:17:50 0° 17° (NNE) 2,682 6.4 -11.8°
